Wind_Speed
70 64 58 66 62 59 53 48 48 45 40 36 31 25 22 17 16 13 13 13 13 12 11 6 7 11 2 5 10 12 15 18 20 24 24 25 24 23 20 14 14 12 12 14
74 67 73 70 65 63 59 55 52 52 49 43 40 35 26 24 20 18 18 16 13 13 9 12 5 7 1 5 10 12 14 21 23 26 25 26 26 24 21 16 13 11 10 9
78 76 75 76 73 69 64 60 63 60 55 50 47 39 33 31 26 26 20 18 16 12 6 9 5 3 5 1 7 12 15 22 24 26 24 26 27 25 22 14 11 9 5 5
83 82 80 79 76 73 69 69 70 67 61 54 53 44 39 38 33 30 22 22 18 14 9 6 7 1 2 1 8 13 15 21 22 24 23 25 27 25 22 17 11 9 5 3
88 89 84 81 81 79 76 76 75 75 67 61 54 47 40 39 33 33 29 26 21 17 13 11 14 7 4 3 8 13 15 21 23 23 25 27 28 26 25 20 14 10 6 3
97 94 89 86 88 85 86 84 79 77 73 60 54 47 42 36 42 40 33 29 24 21 17 15 17 17 10 5 7 12 17 18 24 27 27 25 26 26 25 20 16 11 9 7
103 101 97 93 93 90 88 85 83 82 73 51 55 48 44 43 45 44 35 30 25 20 19 19 17 14 13 12 9 10 14 16 23 28 29 27 28 27 24 21 18 14 12 11
106 106 104 100 95 93 92 89 86 80 71 58 56 45 47 50 52 46 37 33 26 26 25 22 15 18 16 17 12 11 12 15 19 27 28 30 29 28 25 22 21 17 14 13
110 108 108 106 104 99 96 90 84 85 77 67 59 52 56 56 53 48 42 35 34 31 29 26 21 20 19 21 19 16 15 15 21 22 26 29 30 28 27 24 24 21 18 16
111 112 110 110 107 106 101 95 97 88 77 69 63 57 58 57 60 54 47 43 41 35 32 28 25 25 25 24 19 17 16 17 21 20 22 25 27 25 28 28 26 22 20 17
109 111 115 113 111 110 109 105 97 90 79 72 67 59 65 63 63 57 52 47 42 41 37 34 32 26 25 27 27 22 19 20 23 25 26 24 24 24 28 29 26 24 21 18
108 113 114 117 113 114 113 110 102 95 82 75 71 65 72 70 63 61 53 49 45 43 38 38 33 28 26 31 31 28 24 23 25 25 29 30 29 26 26 26 26 26 23 20
105 108 112 119 121 120 117 115 109 96 88 79 74 69 75 74 69 61 56 53 46 43 39 35 32 29 27 31 34 35 31 28 30 29 30 34 34 34 32 30 29 28 28 25
97 105 110 116 124 121 118 115 111 102 94 82 76 74 78 78 71 65 62 58 50 46 41 37 35 34 31 30 32 31 34 33 31 32 33 34 38 38 36 33 32 30 30 30
86 96 108 115 122 123 119 116 114 105 97 86 80 78 79 82 80 73 66 59 55 50 42 38 38 37 34 32 32 29 31 34 33 33 36 37 39 39 39 36 34 32 32 32
81 86 98 111 119 122 123 117 114 107 99 89 83 80 83 85 81 75 65 60 54 48 43 41 41 40 38 37 36 33 35 38 37 35 37 38 39 41 44 42 37 35 34 33
72 76 86 100 114 117 121 115 110 108 101 95 87 85 85 88 85 77 68 61 56 50 45 47 46 46 42 40 41 40 38 39 43 41 37 37 38 41 44 45 42 39 38 36
65 70 77 92 102 108 108 115 110 110 102 98 93 92 88 91 86 78 69 61 58 53 52 52 50 49 47 44 41 39 39 38 40 42 39 37 36 38 43 46 45 44 41 39
55 63 73 82 93 96 98 108 110 105 103 100 98 96 91 92 85 77 69 62 58 58 56 56 56 51 47 44 41 39 38 36 37 41 41 39 38 35 41 48 46 45 45 42
51 59 65 71 83 90 92 101 107 103 104 104 102 100 98 95 85 75 70 66 65 63 61 61 54 49 47 45 43 40 38 37 37 39 41 43 41 37 37 40 43 43 43 44
43 53 56 62 71 81 91 100 104 106 101 103 103 104 100 93 82 76 72 70 70 66 63 57 55 53 51 48 45 43 42 40 38 38 41 43 43 41 39 35 35 39 41 45
35 42 51 60 68 76 89 96 102 101 102 105 105 104 98 90 83 79 76 74 73 68 63 61 61 58 55 52 48 45 43 42 40 40 41 43 44 43 41 39 37 37 39 44
31 40 48 56 67 76 84 91 94 99 103 106 106 103 96 92 88 82 76 75 75 71 65 64 63 60 56 53 50 46 44 44 42 42 42 45 47 46 44 43 40 38 38 43
34 38 46 57 65 73 79 88 92 95 102 106 103 102 96 94 90 84 78 76 76 71 69 66 64 61 57 54 53 49 47 46 46 45 42 42 45 46 45 44 44 42 41 39
36 40 48 57 64 71 75 89 91 93 102 101 99 101 98 94 90 85 81 77 75 72 70 68 64 60 57 55 55 52 50 48 47 45 43 45 46 48 49 49 46 46 44 43
41 47 54 62 70 74 81 93 93 96 101 96 93 100 99 95 91 86 80 79 73 62 69 72 70 65 61 57 55 52 50 50 49 48 45 45 44 47 46 48 52 51 48 48
Wind_Direction
232 232 237 233 231 236 235 234 240 239 240 243 239 241 245 248 250 257 258 270 287 298 294 271 338 6 223 195 195 197 182 164 166 163 163 169 169 165 160 151 136 127 105 90
234 234 236 233 231 233 233 233 234 237 238 237 239 238 239 243 253 247 256 270 274 288 273 240 281 19 77 167 205 201 179 162 165 165 167 169 171 171 167 162 148 140 115 105
233 234 235 233 231 231 232 232 233 232 233 235 239 236 239 240 240 248 259 255 265 278 273 246 248 38 357 68 212 205 185 172 169 171 173 172 175 173 172 170 163 150 131 109
236 234 235 234 233 232 233 232 233 235 233 233 238 236 236 238 241 246 249 248 259 257 252 245 217 248 12 180 200 209 201 183 179 179 180 176 180 180 178 183 180 176 170 124
234 234 233 232 233 230 231 230 231 234 233 233 236 238 235 241 241 240 237 246 249 248 254 234 215 222 263 247 212 217 227 194 186 188 184 189 190 190 187 189 192 196 191 184
232 233 232 231 233 230 230 230 230 232 232 231 235 233 236 235 233 242 242 240 244 253 253 249 229 220 236 263 242 225 225 217 191 191 192 194 197 199 199 193 196 205 210 217
233 231 231 228 230 232 230 230 230 231 233 225 229 230 234 228 236 239 238 238 239 245 242 249 227 210 225 232 248 255 230 224 204 201 199 193 202 204 206 206 208 214 227 235
233 231 229 230 228 230 232 229 229 230 229 223 224 221 228 225 229 234 233 232 231 227 232 234 214 216 217 219 223 237 244 243 230 212 210 205 204 210 216 222 222 222 227 239
229 231 229 228 227 228 229 230 230 228 226 220 219 214 223 224 228 229 229 227 224 223 229 235 223 212 196 213 224 229 233 234 244 229 209 214 217 215 223 228 227 224 228 233
226 227 228 226 227 226 227 226 227 226 223 220 216 212 221 220 224 224 223 221 218 219 226 228 223 214 211 200 217 217 223 230 239 237 217 216 224 220 224 228 229 224 226 237
225 223 226 226 224 225 225 224 226 226 219 215 213 209 221 225 220 221 220 222 218 218 216 223 229 223 223 209 204 216 219 222 227 227 221 217 223 222 222 227 228 227 227 233
224 223 223 224 224 224 223 225 222 223 218 214 212 207 219 224 220 220 221 222 220 218 219 225 232 237 221 212 213 209 219 225 227 229 229 218 217 225 226 226 230 231 230 234
224 221 221 222 222 223 221 221 221 218 217 213 209 205 218 225 220 216 218 221 219 221 219 225 233 228 232 229 224 223 225 229 228 231 234 227 220 220 222 224 230 236 239 239
225 221 218 219 219 221 221 220 220 216 214 210 206 206 217 222 223 214 217 217 216 219 218 221 227 230 236 234 232 224 220 218 228 231 234 233 224 228 226 225 230 233 239 243
226 221 218 217 219 218 220 218 217 214 211 208 205 207 216 219 221 219 213 217 215 217 216 219 221 228 231 229 232 230 226 222 225 230 234 233 232 231 229 229 230 235 239 243
227 221 218 217 218 217 217 217 214 212 209 205 205 207 214 220 222 220 211 215 218 216 215 219 223 224 228 225 225 229 227 225 224 227 231 232 235 237 232 231 230 233 239 243
226 222 218 215 216 216 215 216 214 210 206 202 204 208 213 219 221 220 213 212 216 215 214 220 224 223 228 227 226 228 229 228 228 230 231 234 234 239 238 236 232 232 238 243
223 220 214 214 216 215 211 213 211 207 204 201 202 209 211 217 220 220 219 213 214 213 216 219 222 226 229 232 235 238 235 237 235 233 234 235 234 235 238 236 237 234 235 241
217 217 214 210 213 212 207 210 210 204 203 200 202 209 212 215 218 217 216 212 213 215 216 220 221 224 230 234 238 239 236 240 243 234 229 232 235 235 235 239 240 240 239 238
213 210 211 207 210 206 202 205 207 202 201 198 202 208 212 213 215 216 215 213 214 215 214 217 220 222 225 230 235 236 236 240 243 242 232 230 233 236 240 241 242 244 246 244
208 208 206 202 204 207 197 200 202 201 201 198 201 209 211 212 213 216 215 214 216 216 214 215 219 222 225 228 232 236 236 236 241 244 241 235 234 235 241 245 243 240 244 246
201 199 198 197 197 199 199 196 198 198 200 198 202 209 209 210 210 215 215 216 217 217 215 214 219 222 226 229 231 237 241 242 241 243 245 242 238 237 240 245 246 244 242 245
184 187 189 192 194 196 195 194 194 196 197 196 204 207 206 209 210 213 216 218 219 217 216 217 218 222 226 230 231 236 241 246 245 242 245 244 241 239 239 242 246 250 252 249
172 180 181 186 192 197 190 190 192 194 196 196 204 206 204 208 210 212 216 218 220 219 218 220 220 222 224 229 233 236 241 245 247 244 244 245 244 241 240 243 248 251 253 258
165 173 177 185 191 194 186 187 191 193 195 196 204 204 203 208 210 211 214 217 220 222 223 223 223 225 226 227 231 234 240 244 245 244 242 241 239 238 238 239 243 248 253 257
163 174 181 183 190 191 187 187 189 191 192 196 203 203 203 207 210 210 212 216 218 216 222 223 224 224 226 227 230 234 239 241 240 239 243 245 249 250 251 246 240 242 247 253
Height
10876 10886 10892 10886 10899 10907 10916 10924 10927 10933 10938 10940 10948 10954 10958 10961 10963 10967 10968 10969 10969 10968 10969 10970 10971 10968 10967 10969 10970 10972 10973 10976 10980 10984 10987 10990 10994 10997 10999 11002 11002 11003 11005 11005
10861 10874 10862 10877 10888 10895 10903 10911 10916 10920 10928 10934 10938 10946 10955 10958 10961 10963 10965 10966 10967 10966 10966 10968 10970 10969 10968 10968 10970 10973 10974 10976 10980 10983 10988 10990 10993 10997 11000 11002 11003 11005 11007 11008
10842 10846 10854 10861 10873 10882 10888 10896 10899 10905 10916 10924 10930 10941 10948 10951 10956 10958 10962 10962 10964 10964 10964 10966 10967 10968 10968 10968 10971 10974 10975 10976 10980 10983 10988 10991 10994 10996 11000 11004 11005 11006 11008 11009
10821 10826 10835 10846 10857 10866 10874 10874 10883 10892 10906 10916 10920 10933 10940 10944 10949 10953 10958 10957 10961 10962 10962 10963 10965 10967 10968 10968 10971 10975 10975 10977 10980 10984 10988 10993 10995 10997 11000 11004 11005 11007 11008 11009
10800 10800 10816 10829 10833 10846 10848 10859 10865 10875 10893 10905 10916 10926 10933 10937 10944 10946 10950 10952 10956 10959 10959 10960 10962 10965 10967 10968 10970 10973 10977 10977 10980 10983 10987 10991 10994 10997 10999 11002 11005 11008 11009 11010
10769 10779 10794 10809 10809 10821 10823 10839 10853 10863 10877 10901 10910 10920 10924 10931 10929 10936 10944 10947 10950 10955 10957 10958 10959 10962 10965 10967 10968 10971 10975 10977 10979 10983 10984 10989 10993 10996 11000 11002 11005 11008 11010 11011
10740 10754 10766 10778 10787 10799 10810 10825 10840 10848 10867 10901 10898 10911 10911 10917 10920 10926 10936 10941 10945 10950 10953 10955 10955 10957 10962 10965 10967 10969 10973 10976 10978 10981 10984 10986 10991 10994 10998 11001 11004 11007 11010 11011
10706 10722 10741 10757 10770 10782 10791 10805 10821 10838 10859 10878 10886 10906 10897 10900 10905 10916 10927 10935 10941 10943 10945 10947 10950 10953 10957 10960 10964 10967 10970 10974 10976 10978 10983 10985 10988 10993 10995 10999 11002 11005 11008 11009
10673 10689 10708 10727 10744 10755 10767 10793 10811 10816 10839 10859 10877 10887 10873 10886 10897 10907 10917 10927 10931 10935 10938 10941 10945 10948 10952 10956 10959 10963 10966 10970 10974 10976 10980 10983 10986 10989 10993 10997 11000 11002 11004 11006
10641 10659 10677 10698 10717 10731 10748 10767 10772 10798 10826 10848 10863 10875 10865 10875 10882 10893 10905 10914 10919 10926 10931 10935 10938 10942 10946 10950 10955 10959 10962 10966 10969 10974 10978 10980 10983 10987 10991 10993 10996 10998 11000 11003
10606 10629 10647 10666 10687 10706 10719 10734 10760 10782 10811 10830 10848 10864 10849 10858 10869 10882 10893 10901 10911 10918 10924 10927 10931 10935 10941 10945 10950 10954 10957 10962 10965 10969 10974 10977 10980 10983 10985 10988 10992 10994 10996 11000
10571 10597 10616 10638 10659 10671 10693 10712 10739 10758 10794 10816 10833 10848 10835 10835 10855 10872 10883 10892 10902 10910 10917 10920 10925 10931 10935 10939 10945 10948 10951 10956 10959 10962 10967 10971 10974 10979 10982 10984 10988 10991 10993 10996
10540 10564 10587 10601 10621 10638 10661 10683 10712 10748 10771 10800 10819 10835 10822 10821 10841 10862 10874 10882 10893 10901 10909 10916 10921 10925 10929 10934 10938 10942 10945 10949 10954 10957 10961 10965 10969 10972 10976 10980 10982 10987 10990 10992
10509 10532 10553 10568 10586 10609 10637 10665 10691 10726 10753 10782 10804 10815 10808 10814 10824 10848 10859 10869 10882 10891 10899 10906 10913 10918 10923 10927 10930 10934 10937 10942 10947 10951 10956 10959 10962 10965 10970 10974 10977 10981 10985 10987
10481 10502 10523 10539 10554 10585 10609 10639 10670 10706 10739 10765 10785 10798 10798 10800 10807 10826 10846 10861 10871 10882 10892 10898 10904 10909 10915 10919 10923 10926 10931 10936 10940 10944 10949 10952 10955 10959 10964 10967 10970 10974 10977 10981
10456 10475 10495 10515 10529 10555 10581 10614 10647 10686 10722 10751 10770 10783 10781 10785 10797 10816 10841 10854 10864 10875 10885 10891 10895 10900 10906 10911 10914 10918 10923 10928 10931 10936 10939 10944 10950 10953 10956 10959 10962 10966 10970 10974
10437 10455 10475 10492 10499 10527 10563 10602 10634 10669 10702 10731 10753 10760 10764 10771 10784 10802 10826 10844 10855 10865 10873 10879 10885 10890 10895 10901 10906 10910 10914 10919 10923 10928 10933 10937 10941 10946 10948 10951 10955 10958 10962 10967
10419 10436 10452 10470 10483 10509 10559 10579 10619 10647 10686 10715 10731 10735 10746 10754 10772 10795 10814 10832 10843 10854 10860 10866 10874 10879 10885 10890 10897 10902 10907 10911 10915 10920 10925 10929 10933 10936 10940 10943 10946 10950 10954 10959
10407 10422 10437 10458 10471 10505 10542 10569 10598 10641 10671 10698 10713 10717 10733 10744 10762 10784 10803 10819 10831 10839 10846 10853 10859 10867 10875 10882 10887 10893 10898 10903 10908 10912 10916 10920 10924 10928 10931 10933 10938 10942 10946 10952
10400 10411 10429 10450 10468 10493 10530 10555 10585 10625 10650 10676 10693 10700 10709 10732 10753 10776 10793 10806 10812 10820 10831 10838 10849 10857 10865 10871 10875 10882 10888 10893 10897 10901 10905 10910 10916 10920 10922 10925 10931 10935 10938 10943
10397 10409 10424 10444 10467 10492 10513 10537 10574 10605 10642 10666 10681 10684 10700 10728 10752 10766 10779 10790 10795 10807 10818 10829 10837 10844 10852 10859 10865 10871 10876 10880 10885 10891 10895 10901 10906 10910 10914 10919 10922 10923 10926 10931
10397 10409 10423 10439 10460 10480 10505 10530 10561 10600 10625 10651 10663 10671 10698 10724 10742 10749 10763 10774 10783 10794 10806 10817 10824 10831 10840 10847 10854 10860 10865 10869 10875 10880 10886 10890 10895 10901 10906 10909 10912 10913 10916 10918
10400 10412 10425 10441 10458 10475 10499 10532 10562 10587 10614 10636 10643 10661 10695 10713 10726 10736 10751 10761 10769 10782 10793 10802 10812 10821 10828 10835 10843 10850 10855 10859 10866 10871 10875 10880 10884 10890 10895 10899 10901 10904 10906 10908
10404 10416 10429 10442 10458 10475 10500 10531 10555 10581 10605 10625 10632 10655 10684 10698 10712 10727 10738 10747 10758 10771 10782 10789 10799 10808 10816 10825 10833 10840 10845 10849 10854 10860 10866 10870 10873 10878 10883 10888 10892 10895 10898 10899
10410 10422 10433 10446 10461 10476 10504 10529 10551 10575 10598 10615 10622 10646 10671 10686 10700 10715 10724 10737 10748 10761 10772 10779 10789 10797 10805 10813 10821 10828 10832 10838 10844 10850 10855 10857 10860 10864 10868 10872 10876 10881 10886 10890
10412 10423 10433 10445 10459 10476 10497 10518 10541 10566 10587 10603 10614 10636 10657 10672 10686 10701 10716 10726 10739 10750 10758 10765 10774 10783 10791 10799 10808 10815 10821 10825 10831 10837 10843 10847 10850 10852 10856 10858 10861 10865 10871 10876